Date,TemperatureHighF,TemperatureAvgF,TemperatureLowF,DewpointHighF,DewpointAvgF,DewpointLowF,HumidityHigh,HumidityAvg,HumidityLow,PressureMaxIn,PressureMinIn,WindSpeedMaxMPH,WindSpeedAvgMPH,GustSpeedMaxMPH,PrecipitationSumIn
2012-1-1,42,34,25,33,17,0,86,55,17,30.38,29.76,26,10,26,0.00
2012-1-2,32,23,12,14,7,-1,74,52,24,30.46,30.37,24,7,24,0.00
2012-1-3,47,29,9,26,12,4,84,54,26,30.38,29.83,21,6,21,0.00
2012-1-4,51,40,31,29,25,20,83,57,31,30.13,29.89,17,5,17,0.00
2012-1-5,68,47,31,30,25,16,78,47,14,29.96,29.59,14,5,14,0.00
2012-1-6,60,41,30,32,27,22,90,60,27,29.91,29.58,23,4,23,0.00
2012-1-7,49,34,23,25,22,17,83,63,35,30.13,29.91,9,2,9,0.00
2012-1-8,53,33,23,29,23,19,93,70,29,30.23,30.13,6,1,6,0.00
2012-1-9,56,37,24,29,22,18,84,58,23,30.14,29.92,14,4,14,0.00
2012-1-10,60,41,28,29,24,20,79,54,24,29.92,29.59,12,3,12,0.00
2012-1-11,42,30,19,33,22,8,91,73,62,29.81,29.50,40,12,40,0.02
2012-1-12,19,12,7,8,3,-2,80,67,55,29.88,29.78,27,11,27,0.00
2012-1-13,28,15,4,8,2,-2,79,58,30,29.97,29.81,12,4,12,0.00
2012-1-14,45,30,20,26,17,7,82,61,40,30.04,29.74,13,5,13,0.00
2012-1-15,58,40,21,26,20,15,79,48,21,30.02,29.62,21,6,21,0.00
2012-1-16,47,37,25,27,24,17,81,60,43,29.73,29.55,21,6,21,0.00
2012-1-17,25,16,4,19,9,0,91,73,50,30.23,29.70,24,8,24,0.00
2012-1-18,38,20,0,21,12,-4,88,71,47,30.20,29.69,25,6,25,0.00
2012-1-19,22,10,3,15,-4,-11,79,55,32,30.04,29.79,21,7,21,0.00
2012-1-20,15,11,6,5,1,-6,75,64,53,30.08,29.81,17,8,17,0.00
2012-1-21,25,18,10,21,12,4,85,79,74,30.08,29.62,21,7,21,0.00
2012-1-22,43,34,25,41,33,21,98,94,84,29.62,29.28,20,7,20,0.07
2012-1-23,30,27,20,27,22,16,94,81,72,29.94,29.40,19,8,19,0.00
2012-1-24,39,26,11,30,21,8,92,81,60,30.14,29.94,13,4,13,0.00
2012-1-25,50,38,28,33,29,26,94,73,47,30.11,29.81,12,3,12,0.00
2012-1-26,52,35,24,35,28,23,96,78,49,29.81,29.71,21,5,21,0.01
2012-1-27,40,32,26,30,24,19,89,72,53,30.03,29.76,24,4,24,0.00
2012-1-28,46,32,20,20,14,5,81,50,21,30.11,30.00,24,8,24,0.00
2012-1-29,48,34,23,18,13,4,65,42,17,30.13,29.83,11,4,11,0.00
2012-1-30,69,49,36,34,22,8,67,41,10,29.84,29.62,20,7,20,0.00
2012-1-31,64,48,38,42,33,27,94,60,28,29.94,29.65,13,5,13,0.00
2012-2-1,62,44,28,32,25,15,88,54,16,30.03,29.94,13,2,13,0.00
2012-2-2,59,42,25,34,26,21,87,59,26,30.13,30.02,9,2,9,0.00
2012-2-3,44,40,34,37,34,30,95,82,62,30.16,29.97,34,11,34,0.45
2012-2-4,34,33,31,33,31,27,98,93,85,30.19,29.97,31,3,31,0.06
2012-2-5,31,26,20,27,23,18,96,90,84,30.26,30.16,0,0,0,0.00
2012-2-6,36,26,20,28,23,19,96,89,70,30.16,30.01,8,1,8,0.06
2012-2-7,36,30,25,31,27,22,93,87,77,30.33,30.05,17,6,17,0.05
2012-2-8,35,23,14,24,14,9,88,71,36,30.35,30.21,8,3,11,0.01
2012-2-9,39,29,16,30,24,13,90,82,67,30.21,29.90,16,4,16,0.01
2012-2-10,33,16,4,29,6,-6,88,65,51,30.38,29.89,27,12,27,0.00
2012-2-11,19,7,-2,3,-5,-10,70,59,38,30.57,30.37,13,5,13,0.00
2012-2-12,37,19,-2,12,3,-8,79,52,28,30.43,29.93,11,4,11,0.00
2012-2-13,32,30,25,31,26,9,98,88,43,29.93,29.59,18,5,18,0.02
2012-2-14,46,34,23,34,29,23,98,85,63,29.75,29.63,12,4,12,0.02
2012-2-15,51,36,28,34,31,27,97,84,51,29.95,29.73,12,3,12,0.01
2012-2-16,45,36,27,31,26,22,92,69,43,30.15,29.95,11,4,11,0.01
2012-2-17,51,37,27,31,27,21,84,68,42,30.10,29.92,13,5,13,0.00
2012-2-18,45,30,19,24,20,16,89,68,39,30.16,30.03,14,3,14,0.00
2012-2-19,50,34,18,29,22,16,93,66,36,30.03,29.89,14,4,14,0.00
2012-2-20,43,38,33,40,31,20,93,75,56,29.92,29.49,24,9,24,0.33
2012-2-21,48,39,33,38,31,27,94,73,48,29.73,29.50,17,7,17,0.00
2012-2-22,56,43,34,36,32,27,79,64,40,29.53,29.30,14,5,14,0.00
2012-2-23,44,39,30,41,36,30,99,90,74,29.63,29.15,24,7,24,0.28
2012-2-24,38,30,23,32,26,18,99,86,58,30.09,29.63,16,2,16,0.05
2012-2-25,38,28,15,22,17,10,83,63,41,30.20,29.73,21,7,21,0.02
2012-2-26,56,44,31,30,26,21,81,51,27,30.11,29.64,23,8,23,0.00
2012-2-27,44,31,20,26,18,13,82,61,36,30.40,30.11,16,6,16,0.00
2012-2-28,56,43,32,54,36,21,98,76,58,30.18,29.21,22,8,22,0.53
2012-2-29,52,36,29,51,27,23,94,70,56,29.75,29.23,36,17,36,0.01
2012-3-1,56,38,24,36,30,22,95,76,47,29.75,29.49,18,6,21,0.00
2012-3-2,50,38,30,32,27,20,95,69,34,29.78,29.52,21,9,21,0.00
2012-3-3,43,32,24,23,19,14,81,58,33,29.83,29.75,21,8,21,0.00
2012-3-4,51,34,20,34,24,17,91,69,41,30.07,29.70,28,7,28,0.00
2012-3-5,55,38,20,27,22,18,94,58,26,30.15,29.73,19,6,19,0.00
2012-3-6,73,60,45,48,37,27,65,46,20,29.73,29.55,27,10,27,0.00
2012-3-7,66,50,34,52,41,26,89,71,57,29.96,29.52,28,11,28,0.01
2012-3-8,54,39,26,26,15,-4,83,44,10,30.27,29.95,23,7,23,0.00
2012-3-9,61,44,25,28,17,4,74,38,13,30.43,30.19,14,5,14,0.00
2012-3-10,70,52,36,30,22,7,67,37,10,30.19,29.96,25,9,25,0.00
2012-3-11,51,47,44,48,40,29,99,79,51,29.99,29.65,18,5,18,0.25
2012-3-12,65,53,44,50,47,43,99,82,56,29.84,29.59,15,5,15,0.06
2012-3-13,81,61,41,50,45,39,98,64,24,29.90,29.73,23,5,23,0.00
2012-3-14,84,67,58,61,54,46,94,65,29,29.82,29.69,21,6,21,0.00
2012-3-15,82,65,50,63,55,45,95,72,41,29.91,29.80,12,3,12,0.00
2012-3-16,78,68,59,64,60,57,98,77,53,29.85,29.73,19,6,19,0.00
2012-3-17,83,71,64,62,60,56,88,71,41,29.77,29.65,23,10,23,0.00
2012-3-18,82,71,66,61,59,57,80,68,46,29.72,29.65,26,10,26,0.00
2012-3-19,75,65,58,62,58,54,94,79,60,29.66,29.52,21,8,21,0.18
2012-3-20,60,57,56,56,55,53,98,92,82,29.78,29.61,13,4,13,0.33
2012-3-21,66,60,56,61,58,55,98,91,80,29.84,29.75,26,8,26,0.06
2012-3-22,70,59,51,58,50,42,97,75,39,29.87,29.75,21,4,24,0.06
2012-3-23,74,59,46,53,48,40,99,71,29,29.85,29.77,11,3,11,0.02
2012-3-24,81,64,45,52,43,30,93,53,17,29.92,29.80,13,3,13,0.00
2012-3-25,85,65,47,59,48,39,90,58,22,29.99,29.89,13,3,13,0.00
2012-3-26,77,67,60,60,55,50,83,67,51,29.97,29.72,23,8,23,0.05
2012-3-27,81,69,60,58,43,18,78,47,11,29.84,29.69,21,9,21,0.00
2012-3-28,79,63,44,49,38,29,87,42,17,29.95,29.81,22,5,22,0.79
2012-3-29,69,60,53,60,54,46,97,82,68,29.85,29.51,27,10,27,1.18
2012-3-30,58,57,56,56,56,55,99,97,95,29.61,29.54,14,3,14,0.00
2012-3-31,88,68,56,62,54,42,93,69,21,29.70,29.53,17,6,17,0.00
2012-4-2,84,75,66,59,56,54,67,52,42,29.65,29.52,10,4,10,0.00
2012-4-3,75,62,51,55,50,46,89,66,43,29.84,29.66,24,7,24,0.00
2012-4-4,61,56,52,49,46,42,86,68,54,29.82,29.70,27,8,27,0.02
2012-4-5,67,55,44,48,36,29,84,51,26,29.98,29.74,19,7,20,0.01
2012-4-6,65,52,38,39,32,20,76,50,20,30.10,29.91,19,7,19,0.00
2012-4-7,66,54,47,50,37,18,95,57,17,30.22,29.91,17,5,17,0.14
2012-4-8,71,55,36,36,28,13,82,41,12,30.27,30.00,21,5,21,0.00
2012-4-9,70,56,39,34,21,8,70,29,10,30.11,30.01,15,5,15,0.00
2012-4-10,64,49,34,29,15,0,64,30,10,30.16,30.06,18,5,18,0.00
2012-4-11,63,46,30,23,16,4,65,35,10,30.25,30.08,14,4,14,0.00
2012-4-12,56,47,36,47,35,23,91,66,39,30.09,29.81,13,5,14,0.25
2012-4-13,73,58,48,61,52,45,97,82,40,29.84,29.64,25,8,25,0.83
2012-4-14,68,61,54,64,59,53,99,95,83,29.73,29.33,40,6,40,0.87
2012-4-15,71,69,62,65,62,59,96,81,68,29.36,29.25,33,14,33,0.08
2012-4-16,64,51,43,44,40,35,96,68,37,30.13,29.38,25,9,25,0.01
2012-4-17,74,56,38,49,43,37,97,68,36,30.19,29.97,22,4,22,0.01
2012-4-18,78,64,51,56,51,45,93,65,40,29.99,29.78,14,5,14,0.13
2012-4-19,68,57,44,58,52,40,96,84,63,29.78,29.55,21,6,21,0.22
2012-4-20,60,49,41,40,35,26,88,62,29,29.97,29.78,24,8,24,0.00
2012-4-21,73,53,36,43,36,21,94,58,17,29.96,29.75,17,4,17,0.00
2012-4-22,58,50,44,43,39,35,78,66,50,30.13,29.86,21,8,21,0.00
2012-4-23,73,54,36,43,34,20,95,55,14,30.12,29.80,13,3,13,0.00
2012-4-24,93,76,51,54,49,36,68,41,19,29.79,29.47,10,3,10,0.00
2012-4-25,94,74,56,63,50,33,91,49,14,29.67,29.40,15,4,15,0.00
2012-4-26,76,66,57,51,43,34,69,44,25,29.92,29.67,18,6,18,0.00
2012-4-27,59,54,46,44,36,29,91,52,34,29.93,29.56,43,17,43,0.45
2012-4-28,67,54,47,51,47,44,94,79,54,29.99,29.59,18,5,18,0.01
2012-4-29,51,49,48,50,48,45,99,94,88,29.98,29.85,20,6,20,0.28
2012-4-30,70,55,48,56,51,47,99,87,59,29.91,29.75,8,3,8,0.00
2012-5-1,85,70,55,68,61,53,97,75,45,29.77,29.52,17,5,17,0.00
2012-5-2,80,71,62,71,65,60,98,84,68,29.67,29.51,24,6,24,0.20
2012-5-3,85,73,62,70,66,60,98,80,56,29.78,29.63,26,4,26,0.20
2012-5-4,88,76,65,73,68,64,99,78,51,29.76,29.65,14,5,14,0.00
2012-5-5,90,79,70,74,71,69,99,78,53,29.76,29.65,16,5,16,0.00
2012-5-6,86,71,62,70,64,59,99,80,44,29.92,29.67,30,6,30,1.12
2012-5-7,73,64,57,62,49,42,99,62,34,29.99,29.83,24,6,24,0.04
2012-5-8,72,60,50,46,41,34,75,51,29,29.97,29.88,20,5,20,0.00
2012-5-9,75,59,46,49,43,36,86,58,27,30.00,29.85,13,3,13,0.00
2012-5-10,81,66,45,55,49,43,94,59,33,29.86,29.72,15,4,15,0.00
2012-5-11,81,68,57,58,51,36,89,56,33,30.11,29.77,18,4,18,0.00
2012-5-12,76,62,52,47,40,34,66,46,24,30.22,30.11,17,5,17,0.00
2012-5-13,81,65,50,46,34,17,69,37,10,30.19,30.05,18,3,18,0.00
2012-5-14,86,68,47,54,43,32,86,47,16,30.06,29.89,13,2,13,0.00
2012-5-15,91,73,56,56,40,16,77,39,10,29.94,29.82,18,6,18,0.00
2012-5-16,84,67,50,44,35,18,61,34,10,30.06,29.90,16,4,16,0.00
2012-5-17,87,72,58,54,49,42,65,46,26,29.93,29.73,18,5,18,0.00
2012-5-18,91,76,62,58,53,49,64,46,26,29.78,29.64,19,6,19,0.00
2012-5-19,88,76,68,63,58,53,69,54,34,29.75,29.67,16,6,16,0.00
2012-5-20,75,66,55,60,49,31,89,58,27,30.15,29.72,19,7,19,0.00
2012-5-21,84,66,45,47,39,30,83,43,17,30.19,30.00,10,2,10,0.00
2012-5-22,86,71,55,48,43,34,67,41,16,30.01,29.65,14,4,14,0.00
2012-5-23,93,78,64,63,54,46,57,45,31,29.65,29.35,21,7,21,0.00
2012-5-24,82,74,60,65,60,54,83,62,51,29.69,29.31,18,6,18,0.00
2012-5-25,79,65,56,62,56,48,94,75,36,29.86,29.69,24,6,24,0.05
2012-5-26,94,78,64,75,68,57,87,71,51,29.84,29.70,15,6,15,0.00
2012-5-27,95,83,73,71,63,54,78,54,34,29.73,29.56,21,7,21,0.00
2012-5-28,89,77,63,68,54,24,95,51,11,29.78,29.58,15,5,15,0.09
2012-5-29,82,68,55,51,42,28,83,44,16,29.92,29.75,16,4,16,0.00
2012-5-30,79,62,49,58,46,38,91,60,24,29.95,29.73,11,3,11,0.12
2012-5-31,61,55,48,55,51,45,98,85,66,29.94,29.76,20,6,20,0.20
2012-6-1,72,59,42,52,45,36,98,65,29,29.93,29.78,10,3,10,0.00
2012-6-2,84,68,51,56,46,33,85,51,18,29.78,29.70,15,4,15,0.00
2012-6-3,90,75,55,65,56,47,79,55,33,29.78,29.64,11,3,11,0.00
2012-6-4,92,78,66,65,60,51,86,57,26,29.82,29.67,17,5,17,0.00
2012-6-5,94,77,60,65,57,46,98,56,21,29.90,29.78,11,2,11,0.00
2012-6-6,89,76,64,59,56,52,77,52,30,29.97,29.82,11,4,11,0.00
2012-6-7,91,75,63,55,53,47,71,49,24,30.04,29.93,9,2,9,0.00
2012-6-8,92,76,60,57,52,45,78,47,21,29.97,29.77,13,3,13,0.00
2012-6-9,94,79,61,60,54,40,75,45,17,29.79,29.58,16,4,16,0.00
2012-6-10,95,81,63,66,62,58,99,56,33,29.73,29.56,27,6,27,2.03
2012-6-11,84,72,64,69,60,48,99,70,33,29.97,29.65,14,4,14,1.12
2012-6-12,80,68,57,55,48,41,77,49,25,30.14,29.97,12,4,12,0.00
2012-6-13,86,72,58,58,51,46,81,50,27,30.05,29.80,12,4,17,0.00
2012-6-14,92,78,68,68,63,55,84,60,40,29.83,29.70,23,6,23,0.01
2012-6-15,81,70,65,71,66,62,99,87,62,29.84,29.77,15,4,15,0.73
2012-6-16,86,72,64,71,67,63,99,87,60,29.91,29.81,21,3,21,0.44
2012-6-17,91,77,61,74,68,61,99,76,54,29.90,29.52,17,4,17,0.01
2012-6-18,96,85,76,74,70,66,79,62,44,29.61,29.48,23,9,23,0.00
2012-6-19,94,83,74,72,68,64,72,60,44,29.72,29.60,21,7,21,0.00
2012-6-20,88,78,64,72,68,63,99,73,57,29.91,29.68,24,7,24,0.60
2012-6-21,84,72,60,63,59,52,99,69,35,30.02,29.89,15,3,15,0.00
2012-6-22,89,74,57,66,58,47,99,63,29,30.01,29.86,8,2,8,0.00
2012-6-23,80,70,64,69,64,57,95,80,65,29.92,29.72,17,5,17,0.14
2012-6-24,96,83,70,76,71,68,93,70,46,29.85,29.77,12,4,12,0.00
2012-6-25,86,79,69,74,70,62,93,75,58,29.91,29.83,24,8,24,0.00
2012-6-26,92,77,63,70,60,51,77,57,43,29.89,29.67,14,5,14,0.00
2012-6-27,101,87,73,80,69,57,69,56,44,29.70,29.64,20,5,20,0.00
2012-6-28,103,89,76,82,76,70,85,67,47,29.83,29.70,11,3,11,0.00
2012-6-29,96,84,74,79,72,68,95,71,46,29.81,29.70,11,4,11,0.02
2012-6-30,101,83,69,77,72,67,95,71,38,29.79,29.70,11,3,11,0.00
2012-7-1,98,85,71,77,72,63,91,67,42,29.88,29.76,13,3,13,0.00
2012-7-2,96,85,74,74,70,67,80,63,42,29.89,29.78,15,3,15,0.00
2012-7-3,99,86,74,77,72,68,82,64,42,29.83,29.71,14,4,14,0.00
2012-7-4,99,87,75,73,68,64,77,56,35,29.81,29.74,11,4,11,0.00
2012-7-5,103,88,77,73,68,64,75,53,32,29.88,29.77,12,3,12,0.00
2012-7-6,103,88,72,72,68,62,80,55,29,29.91,29.85,13,2,13,0.00
2012-7-7,100,86,73,79,72,66,84,64,39,29.97,29.87,14,3,14,0.00
2012-7-8,88,79,71,73,68,63,86,68,45,30.03,29.94,17,5,17,0.00
2012-7-9,95,80,69,66,63,56,83,59,29,30.04,29.96,18,4,18,0.00
2012-7-10,90,77,62,66,58,46,91,55,22,30.06,29.97,16,4,16,0.00
2012-7-11,95,78,64,66,63,56,91,62,30,30.03,29.92,11,3,11,0.00
2012-7-12,99,83,67,67,63,58,81,55,27,29.95,29.86,10,2,10,0.00
2012-7-13,94,81,69,73,66,62,87,65,37,29.96,29.88,12,2,12,0.00
2012-7-14,101,82,66,73,67,60,98,65,28,29.97,29.85,11,2,11,0.00
2012-7-15,101,84,68,73,66,56,94,58,24,29.97,29.86,14,2,14,0.00
2012-7-16,97,84,68,70,66,62,83,58,36,29.89,29.73,16,3,16,0.00
2012-7-17,101,87,73,71,67,60,78,55,28,29.79,29.71,11,3,11,0.00
2012-7-18,100,87,76,76,69,64,82,58,35,29.80,29.73,15,3,15,0.00
2012-7-19,101,86,71,77,70,61,99,64,29,29.97,29.79,13,3,13,0.00
2012-7-20,97,82,68,70,64,51,96,60,22,30.04,29.95,13,3,13,0.00
2012-7-21,102,83,66,70,64,55,90,56,22,30.03,29.89,8,2,8,0.00
2012-7-22,104,87,71,68,63,54,75,48,20,29.98,29.85,17,4,17,0.00
2012-7-23,106,89,75,66,62,52,66,44,17,29.96,29.84,14,3,14,0.00
2012-7-24,104,90,77,69,65,56,68,46,21,29.86,29.70,16,4,16,0.00
2012-7-25,106,89,73,74,66,56,99,51,20,29.71,29.52,23,6,23,0.01
2012-7-26,97,78,70,74,70,55,99,79,35,29.82,29.66,25,3,25,0.00
2012-7-27,87,76,65,68,63,58,90,66,39,30.00,29.81,17,4,17,0.00
2012-7-28,92,77,63,67,62,56,98,66,31,30.07,29.89,14,4,14,0.01
2012-7-29,99,82,68,73,68,64,96,66,34,29.91,29.79,11,4,11,0.00
2012-7-30,99,82,72,76,72,65,99,76,35,29.89,29.78,11,2,11,0.00
2012-7-31,100,83,68,74,69,65,99,67,33,29.91,29.83,11,2,11,0.00
2012-8-1,103,85,69,70,65,58,84,55,25,29.88,29.73,9,2,9,0.00
2012-8-2,101,84,71,71,66,60,89,59,28,29.77,29.69,16,3,16,0.00
2012-8-3,101,85,71,73,70,65,94,64,35,29.80,29.67,11,2,11,0.00
2012-8-4,88,76,66,70,65,55,97,70,42,29.96,29.70,23,5,23,0.01
2012-8-5,88,72,59,62,56,46,94,60,25,30.15,29.96,12,3,12,0.00
2012-8-6,97,77,57,62,57,49,93,56,20,30.09,29.89,8,2,8,0.00
2012-8-7,102,84,66,70,61,53,89,51,22,29.94,29.82,15,2,15,0.01
2012-8-8,98,81,68,69,64,56,90,60,31,29.95,29.77,24,4,24,0.00
2012-8-9,88,75,64,68,61,53,99,66,30,29.93,29.84,20,6,20,0.00
2012-8-10,82,69,54,58,54,51,99,64,37,30.03,29.92,18,4,18,0.00
2012-8-11,86,70,53,62,56,51,99,65,31,30.02,29.87,11,2,11,0.00
2012-8-12,90,73,63,64,60,57,89,67,36,29.91,29.73,14,5,14,0.01
2012-8-13,83,70,62,64,58,50,99,70,33,30.00,29.83,16,5,16,0.00
2012-8-14,87,71,55,62,56,50,98,65,29,29.95,29.81,15,3,15,0.00
2012-8-15,93,76,58,68,62,58,99,67,37,29.84,29.65,17,4,17,0.00
2012-8-16,80,69,56,71,57,47,99,67,33,30.01,29.68,40,7,40,0.24
2012-8-17,85,67,48,57,44,25,97,53,12,30.05,29.93,14,3,14,0.00
2012-8-18,80,61,46,60,50,40,95,72,29,29.97,29.86,10,2,10,0.02
2012-8-19,85,66,50,56,50,43,99,63,25,29.99,29.89,14,3,14,0.00
2012-8-20,91,71,53,58,50,35,99,58,15,29.94,29.82,17,3,17,0.00
2012-8-21,95,76,58,56,51,40,81,47,16,29.96,29.87,12,3,12,0.00
2012-8-22,97,78,59,59,51,36,78,43,12,29.93,29.83,21,4,21,0.00
2012-8-23,94,79,62,59,53,48,71,42,21,29.91,29.78,21,4,21,0.00
2012-8-24,85,75,65,69,61,50,79,64,39,29.88,29.78,17,3,17,0.00
2012-8-25,73,69,66,71,68,64,99,96,76,29.84,29.79,14,4,14,2.42
2012-8-26,89,76,68,72,69,66,99,82,48,29.97,29.78,12,3,12,0.17
2012-8-27,97,78,62,72,66,57,99,71,32,30.09,29.97,7,1,7,0.00
2012-8-28,94,78,62,70,63,56,99,67,30,30.06,29.89,13,2,13,0.00
2012-8-29,95,79,65,69,62,57,86,60,30,29.92,29.79,19,3,19,0.00
2012-8-30,98,81,67,67,61,52,80,55,23,29.90,29.81,15,3,15,0.00
2012-8-31,95,78,64,70,66,60,93,71,40,29.93,29.86,9,2,9,0.00
2012-9-1,88,78,69,73,69,62,98,76,51,29.91,29.84,18,6,18,0.00
2012-9-2,94,77,61,71,65,57,93,69,41,29.90,29.79,8,2,8,0.00
2012-9-3,95,78,68,74,71,65,99,81,40,29.88,29.75,12,2,12,0.02
2012-9-4,98,82,67,76,72,67,99,74,45,29.82,29.67,10,2,10,0.00
2012-9-5,91,78,64,73,61,45,99,59,23,29.86,29.65,17,4,17,0.00
2012-9-6,90,73,54,62,54,47,91,56,26,29.93,29.72,13,3,13,0.00
2012-9-7,73,68,58,68,59,46,99,74,48,30.00,29.66,19,6,19,0.00
2012-9-8,85,66,46,51,44,30,93,52,14,30.06,29.85,20,4,20,0.00
2012-9-9,82,64,48,51,47,41,88,56,28,30.13,29.96,13,3,14,0.00
2012-9-10,85,67,47,55,50,46,99,62,27,30.06,29.86,18,4,18,0.00
2012-9-11,94,76,58,58,52,42,83,49,19,29.90,29.80,21,5,21,0.00
2012-9-12,86,71,55,63,56,40,99,61,37,30.14,29.85,27,6,27,0.27
2012-9-13,66,56,50,56,51,49,99,87,57,30.30,30.12,26,4,26,0.86
2012-9-14,80,62,47,55,47,32,99,67,19,30.29,30.19,10,2,12,0.00
2012-9-15,81,64,46,54,48,41,99,61,26,30.20,30.01,12,2,12,0.00
2012-9-16,78,64,53,63,58,49,99,80,55,30.01,29.83,15,2,15,0.00
2012-9-17,68,58,50,66,54,43,99,89,60,29.93,29.81,20,3,20,0.08
2012-9-18,72,56,41,47,39,26,98,59,19,30.02,29.87,11,3,11,0.00
2012-9-19,88,66,50,64,46,37,81,53,28,29.89,29.68,19,5,19,0.26
2012-9-20,77,62,51,49,40,24,69,46,16,29.97,29.86,12,2,12,0.00
2012-9-21,78,64,52,50,42,30,85,51,20,29.86,29.71,22,4,22,0.00
2012-9-22,66,53,41,42,33,25,75,49,22,30.17,29.82,21,6,21,0.00
2012-9-23,74,53,33,40,33,21,98,56,15,30.25,30.10,10,2,10,0.00
2012-9-24,79,60,42,55,43,34,83,58,21,30.11,29.74,9,2,9,0.00
2012-9-25,88,69,54,58,52,45,98,61,24,29.81,29.69,11,2,11,0.00
2012-9-26,78,63,52,49,40,28,71,47,17,30.03,29.78,14,3,14,0.00
2012-9-27,84,60,38,47,33,17,85,46,10,30.11,30.01,10,2,10,0.00
2012-9-28,80,59,42,54,44,31,97,61,20,30.12,30.01,9,1,9,0.00
2012-9-29,86,62,41,53,42,29,99,58,15,30.09,29.93,8,1,8,0.00
2012-9-30,88,66,47,49,43,31,90,52,15,29.94,29.79,11,2,11,0.00
2012-10-1,80,65,53,50,44,31,76,50,21,29.85,29.77,25,6,25,0.00
2012-10-2,82,61,44,48,40,34,81,49,22,29.87,29.76,12,3,12,0.00
2012-10-3,82,62,40,50,39,24,99,54,12,29.84,29.73,17,3,17,0.00
2012-10-4,63,54,48,47,38,31,86,58,36,30.18,29.82,19,6,19,0.00
2012-10-5,54,43,36,33,29,23,80,59,31,30.22,30.11,13,3,13,0.00
2012-10-6,51,40,29,28,25,22,76,56,37,30.23,30.14,16,4,16,0.00
2012-10-7,60,42,26,31,24,16,90,55,20,30.18,29.95,17,4,17,0.00
2012-10-8,72,52,36,39,32,26,85,53,19,29.95,29.72,24,7,24,0.00
2012-10-9,60,51,39,44,34,22,67,54,32,30.02,29.72,21,6,21,0.00
2012-10-10,65,48,31,33,27,20,83,50,19,30.12,29.97,14,4,14,0.00
2012-10-11,70,53,42,42,34,27,73,51,31,30.21,29.92,24,6,24,0.00
2012-10-12,61,50,37,48,29,19,83,47,22,30.25,29.91,21,8,21,0.00
2012-10-13,77,64,53,68,62,48,99,93,67,29.91,29.48,25,6,25,0.79
2012-10-14,68,58,49,60,49,38,99,74,35,29.86,29.47,28,7,28,0.78
2012-10-15,77,58,39,47,42,38,98,60,27,29.89,29.70,11,3,11,0.00
2012-10-16,80,64,54,52,49,44,85,59,29,29.70,29.34,17,6,17,0.00
2012-10-17,66,58,49,57,45,29,97,62,35,29.49,29.26,23,7,23,0.07
2012-10-18,52,47,43,44,35,25,96,66,40,29.47,29.38,30,14,30,0.33
2012-10-19,49,45,43,44,42,41,98,90,81,29.71,29.44,19,8,19,0.05
2012-10-20,68,52,36,46,42,36,99,72,37,29.74,29.61,11,3,11,0.00
2012-10-21,84,65,48,66,55,44,88,72,49,29.70,29.62,16,5,16,0.00
2012-10-22,82,69,63,72,65,56,99,87,54,29.70,29.63,14,4,14,0.86
2012-10-23,83,69,57,68,63,57,99,85,55,29.70,29.55,17,4,17,0.00
2012-10-24,79,68,55,68,64,55,99,90,61,29.67,29.57,17,5,17,0.00
2012-10-25,55,42,36,54,39,28,99,88,71,30.20,29.50,103,12,103,0.26
2012-10-26,47,36,29,30,28,26,92,72,49,30.36,30.18,18,5,18,0.00
2012-10-27,51,38,27,32,27,24,92,67,41,30.29,30.14,9,2,9,0.00
2012-10-28,56,41,31,31,29,27,90,65,36,30.22,30.11,11,3,11,0.00
2012-10-29,60,46,38,32,29,25,71,53,33,30.17,30.01,19,6,19,0.00
2012-10-30,58,43,32,33,28,14,90,59,19,30.03,29.90,15,4,15,0.00
2012-10-31,63,46,32,36,31,24,92,61,25,29.95,29.86,8,2,8,0.00
2012-11-1,69,50,37,45,39,34,92,68,35,29.88,29.82,16,3,16,0.00
2012-11-2,55,44,36,35,32,29,87,65,38,29.93,29.81,19,8,19,0.00
2012-11-3,61,44,30,37,32,29,97,66,32,30.08,29.93,11,3,11,0.00
2012-11-4,61,47,36,46,38,32,99,74,39,30.07,29.89,13,3,13,0.08
2012-11-5,46,43,41,45,42,40,99,96,89,30.01,29.87,17,4,17,0.13
2012-11-6,59,47,39,44,38,32,99,74,38,29.95,29.82,21,7,21,0.01
2012-11-7,59,44,33,38,34,31,93,69,38,30.05,29.92,12,4,12,0.00
2012-11-8,70,51,37,41,37,33,86,61,29,29.96,29.75,18,6,18,0.00
2012-11-9,70,57,45,59,48,39,88,73,53,29.78,29.60,14,5,14,0.00
2012-11-10,76,68,61,60,58,54,94,70,53,29.60,29.44,30,12,30,0.13
2012-11-11,61,33,23,59,29,18,99,86,62,30.03,29.52,20,3,20,0.76
2012-11-12,42,30,21,23,19,16,82,66,41,30.26,30.03,19,4,19,0.02
2012-11-13,57,39,21,33,26,18,90,64,28,30.26,30.15,11,3,11,0.00
2012-11-14,60,46,35,34,30,21,84,56,24,30.22,30.10,17,5,17,0.00
2012-11-15,67,48,36,37,33,29,85,57,27,30.29,30.09,11,4,11,0.00
2012-11-16,62,43,26,37,32,25,99,69,34,30.33,30.20,8,3,8,0.00
2012-11-17,62,49,38,38,34,29,87,59,30,30.22,30.09,19,6,19,0.00
2012-11-18,63,54,46,38,34,31,59,48,31,30.10,29.97,16,7,16,0.00
2012-11-19,55,55,55,37,37,37,51,51,51,29.99,29.99,7,7,14,0.00
2012-11-20,55,55,55,37,37,37,51,51,51,29.99,29.99,7,7,14,0.00
2012-11-21,55,55,55,37,37,37,51,51,51,29.99,29.99,7,7,14,0.00
2012-11-22,55,55,55,37,37,37,51,51,51,29.99,29.99,7,7,14,0.00
2012-11-23,55,55,55,37,37,37,51,51,51,29.99,29.99,7,7,14,0.00
2012-11-24,55,55,55,37,37,37,51,51,51,29.99,29.99,7,7,14,0.00
2012-11-25,55,55,55,37,37,37,51,51,51,29.99,29.99,7,7,14,0.00
2012-11-26,55,55,55,37,37,37,51,51,51,29.99,29.99,7,7,14,0.00
2012-11-27,55,55,55,37,37,37,51,51,51,29.99,29.99,7,7,14,0.00
2012-11-28,55,55,55,37,37,37,51,51,51,29.99,29.99,7,7,14,0.00
2012-11-29,55,55,55,37,37,37,51,51,51,29.99,29.99,7,7,14,0.00
2012-11-30,55,55,55,37,37,37,51,51,51,29.99,29.99,7,7,14,0.00
2012-12-1,55,55,55,37,37,37,51,51,51,29.99,29.99,7,7,14,0.00
2012-12-2,55,55,55,37,37,37,51,51,51,29.99,29.99,7,7,14,0.00
2012-12-3,55,55,55,37,37,37,51,51,51,29.99,29.99,7,7,14,0.00
2012-12-4,55,55,55,37,37,37,51,51,51,29.99,29.99,7,7,14,0.00
2012-12-5,55,55,55,37,37,37,51,51,51,29.99,29.99,7,7,14,0.00
2012-12-6,55,55,55,37,37,37,51,51,51,29.99,29.99,7,7,14,0.00
2012-12-7,55,55,55,37,37,37,51,51,51,29.99,29.99,7,7,14,0.00
2012-12-8,55,55,55,37,37,37,51,51,51,29.99,29.99,7,7,14,0.00
2012-12-9,55,55,55,37,37,37,51,51,51,29.99,29.99,7,7,14,0.00
2012-12-10,55,55,55,37,37,37,51,51,51,29.99,29.99,7,7,14,0.00
2012-12-11,55,55,55,37,37,37,51,51,51,29.99,29.99,7,7,14,0.00
2012-12-12,55,55,55,37,37,37,51,51,51,29.99,29.99,7,7,14,0.00
2012-12-13,55,55,55,37,37,37,51,51,51,29.99,29.99,7,7,14,0.00
2012-12-14,55,55,55,37,37,37,51,51,51,29.99,29.99,7,7,14,0.00
2012-12-15,55,55,55,37,37,37,51,51,51,29.99,29.99,7,7,14,0.00
2012-12-16,55,55,55,37,37,37,51,51,51,29.99,29.99,7,7,14,0.00
2012-12-17,55,55,55,37,37,37,51,51,51,29.99,29.99,7,7,14,0.00
2012-12-18,55,55,55,37,37,37,51,51,51,29.99,29.99,7,7,14,0.00
2012-12-19,55,55,55,37,37,37,51,51,51,29.99,29.99,7,7,14,0.00
2012-12-20,55,55,55,37,37,37,51,51,51,29.99,29.99,7,7,14,0.00
2012-12-21,55,55,55,37,37,37,51,51,51,29.99,29.99,7,7,14,0.00
2012-12-22,55,55,55,37,37,37,51,51,51,29.99,29.99,7,7,14,0.00
2012-12-23,55,55,55,37,37,37,51,51,51,29.99,29.99,7,7,14,0.00
2012-12-24,55,55,55,37,37,37,51,51,51,29.99,29.99,7,7,14,0.00
2012-12-25,55,55,55,37,37,37,51,51,51,29.99,29.99,7,7,14,0.00
2012-12-26,55,55,55,37,37,37,51,51,51,29.99,29.99,7,7,14,0.00
2012-12-27,55,55,55,37,37,37,51,51,51,29.99,29.99,7,7,14,0.00
2012-12-28,55,55,55,37,37,37,51,51,51,29.99,29.99,7,7,14,0.00
2012-12-29,55,55,55,37,37,37,51,51,51,29.99,29.99,7,7,14,0.00
2012-12-30,55,55,55,37,37,37,51,51,51,29.99,29.99,7,7,14,0.00
2012-12-31,55,55,55,37,37,37,51,51,51,29.99,29.99,7,7,14,0.00
2013-1-1,55,55,55,37,37,37,51,51,51,29.99,29.99,7,7,14,0.00